This demonstration page uses our WeatherBlox Daily Observations layout. Learn more.

Left ArrowRight Arrow

39.51506, -84.39828

Hourly Observations for November 28, 2021

Temp ( °F °C ) Dew Point ( °F °C ) Humidity (%) Winds ( mph kmh ) Pressure ( in mb ) Visibility ( mi km ) Precip ( " mm )
12:15 am 00:15 Clear 30 -1.2 28 -2.1 94 94 N N/A 29.90 1012 10 16 N/A
12:35 am 00:35 Clear 29 -1.4 27 -2.9 90 90 N N/A 29.90 1012 10 16 N/A
12:55 am 00:55 Clear 30 -1.3 28 -2.2 94 94 WSW 7 11 29.91 1013 10 16 N/A
1:15 am 01:15 Clear 29 -1.4 28 -2.5 92 92 W 6 9 29.91 1013 10 16 N/A
1:35 am 01:35 Clear 35 1.6 32 -0.2 88 88 W 8 13 29.90 1013 10 16 N/A
1:55 am 01:55 Clear 36 2.1 31 -0.3 84 84 WNW 6 9 29.90 1013 10 16 N/A
2:15 am 02:15 Clear 38 3.5 32 0.2 79 79 WNW 7 11 29.92 1013 10 16 N/A
2:35 am 02:35 Clear 38 3.2 32 0.1 80 80 NW 8 13 29.92 1013 10 16 N/A
2:55 am 02:55 Clear 38 3.3 33 0.3 81 81 WNW 7 11 29.93 1013 10 16 N/A
3:15 am 03:15 Clear 38 3.1 32 undefined 80 80 N N/A 29.94 1014 10 16 N/A
3:35 am 03:35 Clear 37 2.7 32 -0.1 82 82 NW 5 7 29.94 1014 10 16 N/A
3:55 am 03:55 Partly Cloudy 36 2 32 -0.2 86 86 WNW 3 6 29.95 1014 10 16 N/A
4:15 am 04:15 Mostly Cloudy 36 2.3 32 0.1 86 86 NW 8 13 29.96 1015 10 16 N/A
4:35 am 04:35 Cloudy 37 2.8 33 0.5 85 85 NW 6 9 29.96 1014 10 16 N/A
4:55 am 04:55 Cloudy 37 3 33 0.5 84 84 N 7 11 29.96 1014 10 16 N/A
5:15 am 05:15 Cloudy 37 3 33 0.4 83 83 NW 12 19 29.98 1015 10 16 N/A
5:35 am 05:35 Cloudy 37 3 32 0.1 81 81 NW 9 15 29.99 1015 10 16 N/A
5:55 am 05:55 Cloudy 37 3 32 0.1 81 81 NNW 3 6 29.99 1015 10 16 N/A
6:15 am 06:15 Cloudy 37 3 32 0.2 82 82 N 8 13 30.00 1016 10 16 N/A
6:35 am 06:35 Cloudy 37 2.9 32 -0.2 80 80 NNW 5 7 30.00 1016 10 16 N/A
6:55 am 06:55 Cloudy 37 2.8 32 -0.2 81 81 NW 7 11 30.01 1016 10 16 N/A
7:15 am 07:15 Cloudy 37 2.7 32 -0.2 81 81 NW 8 13 30.01 1016 10 16 N/A
7:35 am 07:35 Cloudy 37 2.6 31 -0.4 81 81 NW 5 7 30.02 1017 10 16 N/A
7:55 am 07:55 Cloudy 37 2.6 31 -0.5 80 80 WNW 6 9 30.02 1017 10 16 N/A
8:15 am 08:15 Cloudy 37 2.7 31 -0.5 80 80 WNW 6 9 30.02 1017 10 16 N/A
8:35 am 08:35 Cloudy 37 2.7 31 -0.5 80 80 WNW 9 15 30.02 1017 10 16 N/A
8:55 am 08:55 Cloudy 37 2.7 31 -0.6 79 79 WNW 10 17 30.03 1017 10 16 N/A
9:15 am 09:15 Cloudy 37 2.5 30 -0.9 79 79 W 7 11 30.03 1017 10 16 N/A
9:35 am 09:35 Cloudy 37 2.5 30 -1.1 77 77 NW 13 20 30.04 1017 10 16 N/A
9:55 am 09:55 Cloudy 37 2.7 30 -1 77 77 W 12 19 30.04 1017 10 16 N/A
10:15 am 10:15 Cloudy 37 2.8 30 -1.1 76 76 NW 9 15 30.05 1018 10 16 N/A
10:35 am 10:35 Cloudy 37 2.9 30 -1.3 74 74 W 9 15 30.04 1017 10 16 N/A
10:55 am 10:55 Cloudy 38 3.2 29 -1.4 72 72 NW 12 19 30.04 1017 10 16 N/A
11:15 am 11:15 Cloudy 39 4.1 30 -1 70 70 W 9 15 30.03 1017 10 16 N/A
11:35 am 11:35 Mostly Cloudy 39 4.1 30 -1.1 69 69 W 12 19 30.02 1017 10 16 N/A
11:55 am 11:55 Partly Cloudy 41 5.2 29 -1.5 62 62 WNW 10 17 30.01 1016 10 16 N/A
12:15 pm 12:15 Partly Cloudy 41 5.2 29 -1.7 61 61 WNW 12 19 30.00 1016 10 16 N/A
12:35 pm 12:35 Partly Cloudy 42 5.8 27 -2.6 55 55 W 16 26 29.99 1016 10 16 N/A
12:55 pm 12:55 Partly Cloudy 43 6.1 26 -3.5 51 51 W 12 19 29.99 1016 10 16 N/A
1:15 pm 13:15 Sunny 44 6.5 25 -3.9 48 48 WNW 13 20 29.99 1016 10 16 N/A
1:35 pm 13:35 Sunny 43 6.3 24 -4.7 46 46 WNW 15 24 29.99 1016 10 16 N/A
1:55 pm 13:55 Sunny 44 6.5 23 -5 44 44 WNW 10 17 29.98 1015 10 16 N/A
2:15 pm 14:15 Sunny 43 6.3 22 -5.4 43 43 W 16 26 29.98 1015 10 16 N/A
2:35 pm 14:35 Sunny 43 6.3 21 -6.1 41 41 W 13 20 29.98 1015 10 16 N/A
2:55 pm 14:55 Sunny 44 6.6 20 -6.5 39 39 WNW 18 30 29.99 1015 10 16 N/A
3:15 pm 15:15 Sunny 44 6.7 19 -7.2 37 37 NW 13 20 29.99 1015 10 16 N/A
3:35 pm 15:35 Sunny 43 6.3 16 -8.7 34 34 NW 20 31 30.00 1016 10 16 N/A
3:55 pm 15:55 Sunny 42 5.7 16 -8.7 35 35 WNW 13 20 30.01 1016 10 16 N/A
4:15 pm 16:15 Partly Cloudy 42 5.5 17 -8.5 36 36 NNW 15 24 30.02 1017 10 16 N/A
4:35 pm 16:35 Sunny 40 4.7 17 -8.1 39 39 NW 18 30 30.03 1017 10 16 N/A
4:55 pm 16:55 Mostly Cloudy 40 4.3 20 -6.5 46 46 N 13 20 30.04 1017 10 16 N/A
5:15 pm 17:15 Partly Cloudy 38 3.2 19 -7.1 47 47 NNW 20 31 30.06 1018 10 16 N/A
5:35 pm 17:35 Partly Cloudy 37 2.6 20 -6.9 50 50 N 12 19 30.07 1018 10 16 N/A
5:55 pm 17:55 Mostly Cloudy 36 2.2 18 -7.6 49 49 NNW 14 22 30.08 1019 10 16 N/A
6:15 pm 18:15 Partly Cloudy 35 1.8 19 -7.2 52 52 NNW 12 19 30.09 1019 10 16 N/A
6:35 pm 18:35 Clear 35 1.6 20 -6.7 54 54 NNW 10 17 30.10 1019 10 16 N/A
6:55 pm 18:55 Clear 35 1.4 19 -7.3 53 53 NNW 13 20 30.11 1020 10 16 N/A
7:15 pm 19:15 Clear 33 0.7 17 -8.1 52 52 NW 10 17 30.12 1020 10 16 N/A
7:35 pm 19:35 Clear 32 0.2 17 -8.4 53 53 NW 9 15 30.12 1020 10 16 N/A
7:55 pm 19:55 Clear 31 -0.3 17 -8.3 55 55 NW 9 15 30.14 1021 10 16 N/A
8:15 pm 20:15 Clear 31 -0.3 17 -8.3 55 55 NW 9 15 30.14 1021 10 16 N/A
8:35 pm 20:35 Clear 30 -0.9 17 -8.1 59 59 NW 8 13 30.15 1021 10 16 N/A
8:55 pm 20:55 Clear 30 -1.3 18 -7.9 61 61 NW 9 15 30.15 1021 10 16 N/A
9:15 pm 21:15 Clear 30 -0.9 18 -7.7 60 60 NW 9 15 30.15 1021 10 16 N/A
9:35 pm 21:35 Clear 30 -1.2 19 -7.5 63 63 NW 7 11 30.16 1021 10 16 N/A
9:55 pm 21:55 Clear 30 -1.3 19 -7.4 64 64 NW 9 15 30.16 1021 10 16 N/A
10:15 pm 22:15 Clear 29 -1.6 19 -7.4 65 65 WNW 7 11 30.16 1021 10 16 N/A
10:35 pm 22:35 Clear 29 -1.6 19 -7 67 67 WNW 8 13 30.16 1021 10 16 N/A
10:55 pm 22:55 Clear 29 -1.5 20 -6.9 67 67 WNW 8 13 30.16 1021 10 16 N/A
11:15 pm 23:15 Clear 29 -1.9 20 -6.9 69 69 NW 8 13 30.17 1022 10 16 N/A
11:35 pm 23:35 Clear 29 -1.7 20 -6.9 68 68 NW 9 15 30.17 1022 10 16 N/A
11:55 pm 23:55 Clear 29 -1.9 19 -7 68 68 NW 8 13 30.17 1022 10 16 N/A

Powered by AerisWeather